Miscellaneous Local Product
Issued by NWS North Platte, NE

Home | Current Version | Previous Version | Text Only | Print | Product List | Glossary On
Versions: 1 2 3 4 5 6 7 8 9 10 11 12 13 14 15 16 17 18 19 20 21 22 23 24 25 26 27 28 29 30 31 32 33 34 35 36 37 38 39 40 41 42 43 44 45 46 47 48 49 50
248
AXUS43 KLBF 260310
MISLBF


WESTERN AND NORTH CENTRAL NEBRASKA HOURLY WEATHER ROUNDUP
NATIONAL WEATHER SERVICE NORTH PLATTE NE
1000 PM CDT THU AUG 25 2016

NOTE: "FAIR" INDICATES FEW OR NO CLOUDS BELOW 12,000 FEET WITH NO
SIGNIFICANT WEATHER AND/OR OBSTRUCTIONS TO VISIBILITY.

NOTE: STATIONS NOT REPORTING VARIABLES SUCH AS SKY/WEATHER OR
PRESSURE ARE PROVIDED BY RAWS AND APRS NETWORKS AND ARE NOT UNDER
NATIONAL WEATHER SERVICE QUALITY CONTROL.

...OBSERVATIONS IN AND NEAR THE EASTERN PANHANDLE OF NEBRASKA...

CITY           SKY/WX    TMP DP  RH WIND       PRES   REMARKS
PINE RIDGE     CLOUDY    57  50  77 NE5       30.22R
CHADRON        MOCLDY    58  48  69 NE5       30.20R
ALLIANCE       PTCLDY    55  47  74 NE9       30.20R
SIDNEY         MOCLDY    64  44  48 SE9       30.22R
CRESCENT LAKE    N/A     62  45  54 E7          N/A
$$

...OBSERVATIONS IN NORTHERN NEBRASKA AND FAR SOUTHERN SOUTH DAKOTA...

CITY           SKY/WX    TMP DP  RH WIND       PRES   REMARKS
WINNER         FAIR      62  47  57 CALM      30.20R
VALENTINE      CLEAR     60  45  57 CALM      30.20R
THEDFORD       CLEAR     61  49  65 E5        30.22R
AINSWORTH      CLEAR     56  52  85 E7        30.21R
O`NEILL        CLEAR     60  52  73 N5        30.21R
ORD            CLEAR     62  52  69 E3        30.18R
BROKEN BOW     CLEAR     55  52  89 CALM      30.20R
VALENTINE NWR    N/A     60  49  68 NE3         N/A
BUTTE            N/A     63  48  59 CALM        N/A
HALSEY           N/A     64  46  53 CALM        N/A
EWING            N/A     59  55  85 CALM        N/A
$$

...OBSERVATIONS IN SOUTHWEST NEBRASKA AND FAR NORTHEAST COLORADO...

CITY           SKY/WX    TMP DP  RH WIND       PRES   REMARKS
WRAY           FAIR      63  45  51 E7        30.19R
HOLYOKE        FAIR      61  48  63 SE7       30.21R
IMPERIAL       CLEAR     59  48  67 SE5       30.19R
OGALLALA       CLOUDY    68  49  49 E9        30.20R
NORTH PLATTE   CLEAR     58  52  80 E7        30.19R
MCCOOK         CLEAR     63  54  72 E7        30.18R
LEXINGTON      CLEAR     62  56  81 E5        30.19R
STAPLETON        N/A     62  51  68 CALM        N/A
GOTHENBURG       N/A     66  53  64 CALM        N/A
CALLAWAY         N/A     59  53  80 E3          N/A
$$

...OBSERVATIONS IN CENTRAL LINCOLN COUNTY AREA...

CITY           SKY/WX    TMP DP  RH WIND       PRES   REMARKS
N.P. AIRPORT   CLEAR     58  52  80 E7        30.19R
N.P. DOWNTOWN    N/A     66  52  60 E3          N/A
N.P. SOUTHEAST   N/A     64  53  68 CALM        N/A
N.P. HILLCREST   N/A     64  51  61 E10         N/A
$$

...SOME OBSERVATIONS FROM AROUND THE REGION...

CITY           SKY/WX    TMP DP  RH WIND       PRES   REMARKS
DENVER         CLOUDY    56  50  80 S3        30.24R
LARAMIE        CLOUDY    53  40  61 S16       30.26R
CHEYENNE       CLOUDY    57  44  62 S14       30.25S
SCOTTSBLUFF    CLOUDY    62  47  57 E12       30.18S
RAPID CITY     PTCLDY    52  45  77 CALM      30.21R
BISMARCK       PTCLDY    58  47  66 S5        30.11S
PIERRE         CLEAR     56  47  71 N5        30.17S
SIOUX FALLS    CLEAR     61  55  81 CALM      30.16R
OMAHA          PTCLDY    63  60  90 N6        30.14R
GRAND ISLAND   CLOUDY    62  56  80 E6        30.19R
KANSAS CITY    MOCLDY    72  66  81 NE9       30.10R
WICHITA        CLOUDY    75  67  76 NE12      30.08R
OKLAHOMA CITY  MOCLDY    78  66  66 NE15      30.04R THUNDER
DALLAS         MOCLDY    85  71  63 SE9       30.02R HX  90
AMARILLO       RAIN      62  60  93 CALM      30.20R FOG
DODGE CITY     CLOUDY    67  63  87 NE5       30.14R
HAYS           PTCLDY    64  54  68 NE8       30.16R
GOODLAND       CLOUDY    59  54  83 S7        30.21R
$$




USA.gov is the U.S. government's official web portal to all federal, state and local government web resources and services.